Notices

What's New in latest Release from April 7th, 2021:

- Updated Glossary, including Speed of Maximum Gust, and Total Hourly Precipitation

- Updated national and regional climate services offices contacts and prices information

- Addition of station inventory lists for 1981-2010, 1971-2000, and 1961-1990 Normals.

If you haven't already, please take our survey and provide feedback about our website: https://eccc.sondage-survey.ca/f/LanguageSelection.aspx?s=442ca660-fcf1-47c0-95a9-59707d6fd709

Hourly Data Report for November 23, 2020

SHEARWATER RCS
NOVA SCOTIA
Current Station Operator: ECCC - MSC

44°37'47.000" N
63°30'48.000" W
24.00 m
8205092
71264
AAW

Download Data

Hourly Data (November 2020)
Hourly Data Report for November 23, 2020
TIME
LST
Temp Definition
°C
Dew Point Definition
°C
Rel Hum Definition
%
Precip. Amount Definition
mm

Wind Dir Definition
10's deg

Wind Spd Definition
km/h
Visibility Definition
km
Stn Press Definition
kPa
Hmdx Definition


Wind Chill Definition


Weather Definition


00:00 0.9 -3.4 73 0.0 5 14   103.10     LegendNANA
01:00 1.6 -2.3 75 0.0 5 12   103.03     LegendNANA
02:00 4.6 -0.5 70 0.0 12 16   102.93     LegendNANA
03:00 5.1 0.2 71 0.0 12 19   102.86     LegendNANA
04:00 5.5 0.8 72 0.0 12 20   102.83     LegendNANA
05:00 5.8 1.7 74 0.0 11 19   102.75     LegendNANA
06:00 6.4 2.5 76 0.0 12 20   102.65     LegendNANA
07:00 7.0 3.6 79 0.0 12 23   102.56     LegendNANA
08:00 7.6 4.7 82 0.0 12 25   102.45     LegendNANA
09:00 8.1 5.6 84 0.0 11 24   102.33     LegendNANA
10:00 8.5 6.2 85 0.0 12 26   102.22     LegendNANA
11:00 8.6 7.2 91 0.0 11 26   102.01     LegendNANA
12:00 9.1 7.4 89 0.2 11 28   101.73     LegendNANA
13:00 10.0 7.7 86 0.0 12 30   101.52     LegendNANA
14:00 10.5 8.2 86 0.0 12 31   101.37     LegendNANA
15:00 10.4 8.8 90 0.2 12 32   101.17     LegendNANA
16:00 11.2 9.4 88 0.0 12 32   100.98     LegendNANA
17:00 11.2 9.9 92 0.0 12 32   100.82     LegendNANA
18:00 11.7 10.6 93 0.0 13 31   100.64     LegendNANA
19:00 11.9 11.2 95 0.0 13 27   100.46     LegendNANA
20:00 12.3 11.7 96 0.2 14 28   100.27     LegendNANA
21:00 12.5 11.9 97 0.0 15 25   100.00     LegendNANA
22:00 13.7 13.2 96 0.0 16 37   99.76     LegendNANA
23:00 13.7 13.1 96 1.0 16 29   99.50     LegendNANA

Notes on Data Quality.

Legend

  • E = Estimated
  • M = Missing
  • NA = Not Available*
  • [empty] = Indicates an unobserved value
Date modified: